Regional Weather Roundup
Issued by NWS Little Rock, AR

Home | Current Version | Previous Version | Graphics & Text | Print | Product List | Glossary On
Versions: 1 2 3 4 5 6 7 8 9 10 11 12 13 14 15 16 17 18 19 20 21 22 23 24 25 26 27
000
ASUS44 KLZK 240105
RWRLZK

WEATHER ROUNDUP FOR ARKANSAS
NATIONAL WEATHER SERVICE LITTLE ROCK AR
800 PM CDT WED APR 23 2014

NOTE: "FAIR" INDICATES FEW OR NO CLOUDS BELOW 12,000 FEET WITH NO
SIGNIFICANT WEATHER AND/OR OBSTRUCTIONS TO VISIBILITY.

ARZ001-003-010-029-240200-
NORTHWEST ARKANSAS

CITY           SKY/WX    TMP DP  RH WIND       PRES   REMARKS
FAYETTEVILLE   PTCLDY    73  50  44 SE8G17    29.83S
FORT SMITH     PTCLDY    78  54  43 SE8       29.79S
HARRISON       CLEAR     67  44  43 SE8       29.87F
BENTONVILLE    PTCLDY    72  46  40 S8        29.83S
ROGERS         PTCLDY    73  47  39 SE13      29.83F
SILOAM SPGS    MOCLDY    72  50  46 SE12      29.82S
HIGHFILL       PTCLDY    70  51  51 S9        29.81F
SPRINGDALE     PTCLDY    72  50  46 S12G23    29.84F
$$

ARZ004-005-016-240200-
NORTH CENTRAL ARKANSAS

CITY           SKY/WX    TMP DP  RH WIND       PRES   REMARKS
BATESVILLE     CLEAR     66  45  45 E8        29.92F
FLIPPIN        CLEAR     70  43  37 E9        29.88F
MTN HOME       CLEAR     69  42  37 SE7       29.88F
$$

ARZ040-041-240200-
WEST CENTRAL ARKANSAS

CITY           SKY/WX    TMP DP  RH WIND       PRES   REMARKS
MENA           PTCLDY   N/A N/A N/A CALM      29.84S
MOUNT IDA      CLEAR     72  53  51 SE3       29.83F
$$

ARZ009-017-025-026-028-240200-
NORTHEAST ARKANSAS

CITY           SKY/WX    TMP DP  RH WIND       PRES   REMARKS
CORNING        FAIR      64  41  42 E9        29.96S
JONESBORO      CLEAR     63  40  42 NE3       29.94R
NEWPORT        CLEAR     66  53  63 E6        29.95S
WALNUT RIDGE   CLEAR     66  39  37 E7        29.95S
BLYTHEVILLE    CLEAR     61  44  53 E6        29.96R
$$

ARZ022-023-033-042-044-240200-
CENTRAL ARKANSAS

CITY           SKY/WX    TMP DP  RH WIND       PRES   REMARKS
LITTLE ROCK    MOCLDY    69  47  45 E7        29.89F
N LITTLE ROCK  MOCLDY    71  48  44 E7        29.89F
JACKSONVILLE   CLEAR     69  48  47 E3        29.90F
SEARCY         CLEAR     69  46  43 VRB5      29.93S
HOT SPRINGS    CLEAR     75  49  39 SE6       29.86F
RUSSELLVILLE   CLEAR     72  48  42 VRB3      29.85F
CLINTON        FAIR      70  46  43 E5        29.90F
$$

ARZ036-240200-
EAST ARKANSAS

CITY           SKY/WX    TMP DP  RH WIND       PRES   REMARKS
WEST MEMPHIS   CLEAR     67  40  37 CALM      29.92S
$$

ARZ050-053-066-070-073-240200-
SOUTHWEST ARKANSAS

CITY           SKY/WX    TMP DP  RH WIND       PRES   REMARKS
ARKADELPHIA    FAIR      70  58  65 E3        29.86F
CAMDEN         CLEAR     72  48  43 MISG      29.87S
TEXARKANA      MOCLDY    74  57  55 SE3       29.83S
EL DORADO      CLEAR     71  53  52 E6        29.87F
DE QUEEN       PTCLDY    75  58  55 SE7       29.80S
$$

ARZ056-057-069-240200-
SOUTHEAST ARKANSAS

CITY           SKY/WX    TMP DP  RH WIND       PRES   REMARKS
PINE BLUFF     CLEAR     66  48  52 SE7       29.91S
STUTTGART      CLEAR     72  43  35 E7        29.92F
MONTICELLO     CLEAR     68  48  48 CALM      29.91R

$$





USA.gov is the U.S. government's official web portal to all federal, state and local government web resources and services.